RH
87 91 92 88 87 75 74 74 69 66 67 79 67 63 60 50 38 36 26 33 44 32 31 47 46 54 66 67 48 21 26 34 55 86 80 84 82 81 81 68 59 84 89
86 85 90 92 86 82 74 73 73 69 67 68 74 68 67 58 38 31 27 56 50 62 48 74 83 76 74 59 26 25 30 49 68 80 85 82 78 81 84 80 58 87 92
92 85 85 85 92 84 76 76 72 72 69 68 68 79 84 65 42 26 27 72 84 80 88 81 72 65 57 48 25 37 51 69 61 70 85 82 82 78 76 82 57 86 83
81 80 84 83 91 89 80 78 72 72 72 71 71 72 91 77 51 24 25 68 74 80 86 81 78 66 57 42 38 54 66 82 84 88 89 84 84 83 79 88 84 96 96
81 77 85 86 92 88 82 79 77 74 74 74 75 87 89 88 65 30 26 62 71 79 84 78 78 66 64 49 37 59 70 88 91 83 80 81 82 91 96 96 77 84 78
79 82 82 91 88 88 84 79 81 77 76 77 79 85 83 87 79 50 26 70 73 67 69 76 76 64 67 52 35 58 68 82 89 86 88 88 77 82 77 96 99 88 99
77 83 85 93 94 91 87 82 81 78 79 77 76 81 85 86 84 75 36 35 68 75 71 66 67 64 67 56 36 46 63 79 85 86 86 88 85 90 87 95 77 77 96
75 74 77 85 92 89 91 88 82 82 82 79 80 83 84 84 86 88 66 30 46 68 72 73 59 69 66 59 37 45 65 78 85 84 78 72 69 76 98 90 94 81 61
75 81 73 77 75 87 85 86 84 80 83 83 83 85 87 87 86 90 84 41 37 58 61 68 71 70 64 59 42 44 71 82 81 84 81 69 72 55 82 62 67 64 55
56 68 74 92 84 89 78 89 83 79 81 82 79 81 83 82 83 85 87 68 47 51 68 60 77 77 67 60 47 35 62 76 80 87 82 85 75 50 42 36 37 43 43
45 43 43 53 77 98 98 98 92 92 85 82 80 77 76 78 80 79 78 78 49 74 51 63 72 82 67 64 49 33 58 68 68 71 84 88 75 79 50 44 47 41 43
48 46 44 42 40 45 65 85 92 87 91 92 84 79 75 73 75 79 75 76 57 67 78 58 72 83 80 65 58 39 34 60 65 65 67 72 70 70 48 38 39 42 43
31 33 44 44 44 41 38 40 60 71 75 96 94 91 83 86 85 82 84 78 74 64 78 65 81 82 83 69 62 55 33 43 58 57 63 74 72 66 42 36 37 38 39
26 27 26 28 34 41 43 41 35 36 58 72 67 86 91 97 94 92 88 85 83 73 64 67 64 75 79 79 70 64 51 39 65 64 62 69 69 64 47 35 36 37 39
20 22 22 23 24 25 28 30 35 36 32 38 58 59 74 92 96 94 97 92 87 86 80 66 68 68 79 83 76 71 65 44 50 67 69 69 74 63 58 33 38 38 39
19 20 21 23 22 20 20 21 21 23 29 31 30 38 58 60 75 91 98 100 94 91 93 88 72 72 72 81 80 76 70 61 39 66 64 71 78 70 58 42 32 40 41
27 28 28 27 27 27 26 26 23 18 18 19 26 28 29 40 57 63 85 100 100 95 91 96 95 91 83 82 84 82 76 70 62 57 63 64 74 72 64 52 33 34 41
37 31 29 29 29 30 32 35 36 31 24 20 15 17 22 27 29 44 56 65 91 100 100 99 98 94 92 87 85 84 82 75 75 75 67 64 69 64 63 55 46 32 34
41 41 40 38 37 36 36 36 37 42 42 36 32 21 14 16 21 28 34 50 58 71 96 100 95 88 87 89 87 87 88 76 78 82 79 73 72 65 56 52 47 42 34
36 35 36 37 42 46 47 43 40 39 40 45 41 38 36 28 18 21 24 29 38 55 60 71 93 99 90 82 83 90 93 86 78 80 83 78 74 69 62 50 51 45 40
61 60 61 57 50 48 46 47 51 52 50 47 45 45 45 42 37 27 24 30 29 34 44 52 49 61 87 94 90 99 98 100 94 86 81 82 75 69 67 60 51 47 41
80 78 78 82 87 84 75 69 67 60 54 55 56 54 49 51 50 43 36 33 30 28 30 35 40 44 50 72 92 99 100 100 97 96 88 86 80 74 68 66 62 50 43
82 82 82 84 88 91 84 82 75 72 74 70 66 66 64 62 62 55 44 36 35 41 48 42 37 42 41 41 50 76 94 98 95 88 93 84 80 76 73 72 68 64 52
75 74 72 74 78 84 91 89 86 79 76 73 71 72 73 72 68 64 62 55 47 43 39 49 56 46 48 55 41 48 72 78 88 90 85 88 84 77 72 74 73 70 66
64 72 77 78 81 81 82 90 86 82 81 81 80 78 73 70 67 67 65 62 56 54 50 64 69 67 63 78 75 57 56 73 84 82 74 74 74 75 74 72 76 77 74
56 71 87 87 87 90 82 85 84 78 82 88 88 88 86 80 75 71 69 65 60 53 56 53 54 76 74 68 68 76 78 86 99 95 86 80 73 69 68 69 73 74 72
Wind_Speed
4 5 3 6 6 6 6 6 6 6 7 7 7 7 7 7 7 7 8 8 8 8 9 8 8 8 7 5 5 5 7 10 12 14 16 13 10 8 10 10 15 17 11
5 6 4 6 6 6 6 6 6 5 5 5 5 4 5 5 6 7 8 8 9 10 11 10 10 8 7 5 5 6 9 11 12 13 14 9 9 8 9 10 12 15 9
5 5 7 9 7 7 8 7 7 6 4 4 3 3 3 5 5 6 8 8 8 7 8 9 7 8 8 6 6 9 11 12 12 12 11 8 6 5 6 6 9 11 9
4 4 6 10 7 7 8 9 7 7 6 4 3 3 4 3 4 5 8 7 6 7 8 9 5 6 6 6 9 10 10 11 13 12 8 7 8 7 5 6 9 13 11
3 4 7 9 9 9 8 10 8 8 7 5 3 4 6 3 2 3 6 7 7 7 7 7 6 4 5 5 8 8 8 11 9 7 2 2 5 8 8 9 11 10 12
4 6 7 9 10 10 10 11 10 9 8 7 6 6 5 6 2 3 6 7 7 7 8 7 6 4 5 5 7 8 7 10 10 7 5 3 5 4 6 7 9 11 12
2 5 8 10 9 8 10 11 11 11 10 10 8 7 6 6 5 4 6 8 8 9 8 8 7 5 6 6 8 8 8 10 9 6 5 4 1 5 2 8 5 7 9
2 4 6 7 7 8 9 11 11 11 11 10 10 9 8 8 9 8 7 9 10 10 9 9 7 6 7 7 9 9 9 8 9 6 5 4 2 10 7 10 5 6 7
3 3 7 9 11 9 8 10 11 12 12 12 12 12 11 11 11 11 10 10 12 12 11 11 9 8 9 9 10 11 11 10 9 9 3 2 4 5 9 7 9 8 7
4 5 5 7 11 11 13 11 12 13 14 15 15 15 15 14 14 14 14 12 13 14 14 13 12 10 10 11 12 13 13 12 11 11 7 7 7 5 5 6 8 8 6
7 7 8 7 9 11 12 13 14 14 15 16 18 18 19 19 18 17 17 15 15 15 15 15 15 13 12 12 13 14 16 14 12 10 10 10 8 7 7 8 8 8 7
10 10 11 12 12 11 12 14 15 17 18 19 18 19 20 21 21 20 18 18 18 18 17 17 17 17 16 15 14 15 17 17 15 13 12 11 9 8 8 9 9 8 8
13 15 16 17 18 17 16 15 15 16 18 19 19 21 22 21 22 22 22 21 20 21 22 20 20 21 19 17 16 16 16 20 18 16 13 11 10 9 9 11 11 10 10
21 22 22 22 24 25 25 23 21 19 19 20 21 20 21 25 25 25 25 24 23 24 24 24 24 24 22 20 18 17 17 21 21 19 16 13 13 12 11 12 14 12 11
21 22 23 25 29 30 31 31 29 26 25 22 21 19 20 23 24 26 27 27 27 25 26 27 26 26 25 23 21 20 19 22 24 22 19 17 14 16 15 14 16 15 14
19 22 23 23 23 25 28 30 33 35 34 31 28 26 23 23 24 25 27 30 29 29 27 28 29 29 28 26 25 23 22 20 25 25 22 21 18 18 16 16 16 17 16
20 21 21 22 23 26 29 30 32 33 36 38 37 34 31 29 27 27 27 28 33 31 32 31 31 31 31 30 30 28 26 26 22 27 26 24 21 22 20 18 18 18 18
15 17 17 17 18 21 25 28 30 29 32 36 38 39 40 37 34 32 31 30 29 32 34 35 36 36 34 33 32 31 29 29 27 25 28 27 25 25 24 22 21 21 20
22 23 23 23 25 28 31 32 31 32 34 33 34 37 40 41 42 40 37 36 32 33 32 37 39 38 37 36 36 34 32 30 28 28 29 29 27 29 27 25 24 23 23
32 33 36 36 36 35 36 37 39 40 39 37 37 37 36 38 41 42 44 43 39 37 36 35 37 40 39 38 36 38 37 35 31 29 30 30 31 30 29 26 26 26 25
23 24 26 30 34 38 42 45 45 45 44 44 42 40 39 40 41 43 45 44 46 45 43 40 37 37 38 38 39 40 41 40 40 36 32 33 33 32 30 28 27 27 28
21 21 21 23 24 25 30 35 40 44 48 48 44 44 41 39 40 42 45 47 47 47 47 47 44 41 40 38 36 31 25 38 42 40 41 37 37 34 33 32 30 29 28
24 23 24 25 24 23 21 24 27 31 35 38 38 39 37 35 35 36 39 42 46 48 45 46 47 46 45 43 40 35 17 14 23 40 44 40 41 39 37 34 35 34 31
26 27 27 28 28 24 22 24 24 26 28 29 31 33 34 32 32 33 35 36 38 41 46 46 45 47 44 45 45 42 41 29 15 14 33 43 41 41 39 40 38 38 36
26 27 29 28 24 23 20 23 26 27 26 26 28 30 31 31 30 31 33 36 39 41 44 42 42 44 45 44 43 42 41 44 42 31 23 25 33 42 40 44 44 41 40
28 30 31 35 29 22 19 20 22 26 27 30 31 33 32 31 31 32 30 31 36 41 43 44 46 41 44 46 44 43 41 36 37 38 35 32 32 33 32 36 40 36 37
Wind_Direction
162 150 210 200 186 176 161 154 143 125 119 119 115 113 103 95 96 112 117 111 103 120 139 127 127 125 125 108 57 68 84 95 97 97 101 102 90 75 73 77 87 83 88
179 210 216 214 208 197 191 175 169 149 129 120 114 105 105 94 93 111 120 115 112 114 122 128 119 126 132 103 76 91 98 103 97 105 103 99 93 66 74 73 104 96 90
187 219 226 208 218 213 201 196 187 175 154 136 124 121 93 92 92 122 135 129 121 127 145 140 117 114 128 111 103 106 108 100 101 104 99 100 92 84 64 65 99 112 85
184 207 228 226 223 225 209 202 196 189 184 180 170 169 151 99 105 135 154 146 146 151 155 146 136 112 129 118 120 114 107 107 100 105 106 98 75 80 90 62 98 94 91
177 215 224 200 216 222 213 208 205 199 201 203 205 185 169 198 118 157 173 162 156 163 165 163 149 127 137 135 138 132 114 106 123 116 69 135 121 128 126 96 120 113 92
197 221 230 226 215 214 212 209 208 213 213 214 211 204 195 207 195 203 200 195 187 188 183 180 166 154 159 158 160 151 138 127 136 136 96 82 88 121 88 108 111 111 105
206 246 244 235 220 226 225 217 214 219 219 217 217 215 228 232 238 237 222 218 204 203 201 199 186 163 179 177 180 171 163 148 147 167 169 187 171 136 115 124 137 111 107
197 216 246 257 248 234 241 232 226 225 224 222 219 215 221 241 244 249 244 229 222 215 213 209 202 187 188 190 189 183 177 164 170 195 181 200 275 175 142 149 123 139 136
262 244 230 229 246 255 253 254 249 244 238 234 227 224 226 234 245 250 250 240 231 227 222 215 210 208 199 196 194 192 188 186 188 202 256 234 319 185 175 169 162 154 152
301 290 273 254 243 243 249 245 251 253 255 253 244 239 239 242 245 246 249 246 235 233 229 226 219 219 213 206 201 200 196 200 197 210 225 261 273 262 215 188 185 175 164
279 288 293 284 268 255 240 240 248 249 249 251 253 251 249 248 249 250 246 246 238 235 235 231 227 224 221 217 210 206 202 206 215 211 211 241 265 288 252 204 194 181 181
281 278 277 281 279 276 272 263 249 252 250 247 248 255 255 253 252 252 248 244 243 235 239 234 232 229 227 223 220 214 215 213 218 222 221 235 255 273 268 228 206 203 202
277 272 273 277 275 272 269 270 269 261 257 256 252 253 254 256 255 251 247 244 241 237 235 236 231 229 229 229 227 226 220 218 222 226 224 231 249 259 260 236 222 218 220
277 277 276 275 273 274 272 270 264 260 258 261 258 250 255 254 253 252 249 245 243 241 240 238 237 237 233 233 231 231 227 222 224 232 234 231 252 258 261 240 233 224 228
290 287 281 278 273 271 271 269 266 260 257 254 255 257 257 254 256 254 250 247 245 245 243 241 241 239 239 236 235 235 232 224 227 234 237 238 250 254 260 252 240 232 230
302 299 295 289 287 283 276 272 269 266 261 256 251 251 251 257 258 257 250 248 244 242 248 247 243 243 242 240 240 239 236 230 224 232 240 240 244 254 255 253 246 241 237
283 280 283 286 287 284 286 284 280 275 268 261 256 251 249 249 254 260 260 254 246 246 245 248 248 246 244 242 244 244 239 233 227 230 239 241 243 252 255 254 249 246 244
299 289 280 275 270 271 283 290 286 280 274 269 263 258 253 249 247 250 255 258 258 249 249 245 247 247 245 244 243 244 243 235 234 232 241 243 244 252 254 254 251 247 247
290 287 280 275 270 267 268 268 267 273 274 269 268 263 257 254 250 248 248 251 254 257 255 250 249 250 250 249 246 244 242 240 236 236 242 246 250 254 255 255 254 252 249
281 278 278 275 272 268 267 265 265 266 265 265 264 264 266 262 256 252 250 247 248 252 254 253 256 254 248 250 254 245 240 237 237 244 246 248 251 256 255 253 252 253 252
306 298 291 290 284 281 275 269 265 265 266 268 268 269 270 267 260 255 252 252 249 248 250 252 253 255 255 254 253 251 247 240 237 236 246 246 250 253 256 255 254 253 254
333 323 314 311 309 304 292 281 275 271 268 267 271 272 273 269 265 260 254 251 250 251 251 251 250 251 254 254 248 242 239 242 241 237 238 242 248 252 255 258 257 256 256
344 334 322 315 310 310 306 295 290 280 269 265 265 270 272 273 272 267 257 254 252 248 250 252 251 250 249 251 247 242 240 237 236 241 234 238 243 249 253 257 261 262 260
345 341 328 315 306 302 305 306 295 284 278 275 272 275 275 273 271 269 265 256 251 248 248 250 251 251 251 249 250 246 241 245 222 234 240 239 242 245 254 257 260 263 264
351 348 348 339 325 304 301 306 298 291 283 287 284 281 277 275 272 271 268 257 253 250 248 247 250 246 247 244 243 246 246 243 245 241 237 237 242 247 252 257 260 261 265
346 349 351 350 344 337 306 293 298 289 288 286 289 289 286 283 279 274 270 266 256 250 249 248 246 246 244 246 244 241 242 237 234 233 240 243 242 251 249 258 260 261 266